Time,TemperatureF,DewpointF,PressureIn,WindDirection,WindDirectionDegrees,WindSpeedMPH,WindSpeedGustMPH,Humidity,HourlyPrecipIn,Conditions,Clouds,dailyrainin,SoftwareType,DateUTC
2013-04-21 00:01:00,33.4,19.8,30.34,North,0,2.0,12.0,57,0.00,,,0.00,meteohub,2013-04-21 04:01:00,
2013-04-21 00:02:00,33.4,19.8,30.34,East,91,2.0,12.0,57,0.00,,,0.00,meteohub,2013-04-21 04:02:00,
2013-04-21 00:07:00,33.4,19.8,30.35,ESE,116,2.0,12.0,57,0.00,,,0.00,meteohub,2013-04-21 04:07:00,
2013-04-21 00:13:00,33.6,20.5,30.35,NE,48,2.0,8.0,58,0.00,,,0.00,meteohub,2013-04-21 04:13:00,
2013-04-21 00:18:00,33.6,20.8,30.35,East,91,4.0,8.0,59,0.00,,,0.00,meteohub,2013-04-21 04:18:00,
2013-04-21 00:23:00,33.6,21.2,30.35,NE,50,2.0,8.0,60,0.00,,,0.00,meteohub,2013-04-21 04:23:00,
2013-04-21 00:28:00,33.6,21.9,30.36,NE,35,7.0,8.0,62,0.00,,,0.00,meteohub,2013-04-21 04:28:00,
2013-04-21 00:33:00,33.6,21.6,30.36,North,8,0.0,13.0,61,0.00,,,0.00,meteohub,2013-04-21 04:33:00,
2013-04-21 00:38:00,33.6,21.2,30.36,NE,52,7.0,13.0,60,0.00,,,0.00,meteohub,2013-04-21 04:38:00,
2013-04-21 00:43:00,33.4,21.0,30.37,NE,49,6.0,13.0,60,0.00,,,0.00,meteohub,2013-04-21 04:43:00,
2013-04-21 00:48:00,33.3,20.8,30.37,North,358,3.0,13.0,60,0.00,,,0.00,meteohub,2013-04-21 04:48:00,
2013-04-21 00:53:00,33.1,20.3,30.37,NNW,331,3.0,14.0,59,0.00,,,0.00,meteohub,2013-04-21 04:53:00,
2013-04-21 00:58:00,32.9,19.8,30.37,ENE,64,1.0,14.0,58,0.00,,,0.00,meteohub,2013-04-21 04:58:00,
2013-04-21 01:04:00,32.7,19.6,30.37,NE,56,6.0,8.0,58,0.00,,,0.00,meteohub,2013-04-21 05:04:00,
2013-04-21 01:09:00,32.5,19.0,30.37,NE,48,1.0,8.0,57,0.00,,,0.00,meteohub,2013-04-21 05:09:00,
2013-04-21 01:14:00,32.4,19.2,30.37,NNE,26,1.0,13.0,58,0.00,,,0.00,meteohub,2013-04-21 05:14:00,
2013-04-21 01:19:00,32.4,19.2,30.38,NE,36,0.0,13.0,58,0.00,,,0.00,meteohub,2013-04-21 05:19:00,
2013-04-21 01:24:00,32.2,19.0,30.37,East,93,5.0,13.0,58,0.00,,,0.00,meteohub,2013-04-21 05:24:00,
2013-04-21 01:29:00,32.2,19.0,30.38,ENE,78,10.0,14.0,58,0.00,,,0.00,meteohub,2013-04-21 05:29:00,
2013-04-21 01:34:00,32.2,19.0,30.38,NNE,27,4.0,14.0,58,0.00,,,0.00,meteohub,2013-04-21 05:34:00,
2013-04-21 01:39:00,32.0,19.2,30.37,East,87,1.0,12.0,59,0.00,,,0.00,meteohub,2013-04-21 05:39:00,
2013-04-21 01:44:00,31.8,19.0,30.37,East,81,1.0,12.0,59,0.00,,,0.00,meteohub,2013-04-21 05:44:00,
2013-04-21 01:49:00,31.8,19.6,30.38,ENE,58,9.0,12.0,60,0.00,,,0.00,meteohub,2013-04-21 05:49:00,
2013-04-21 01:54:00,31.8,19.9,30.37,ENE,73,4.0,14.0,61,0.00,,,0.00,meteohub,2013-04-21 05:54:00,
2013-04-21 01:59:00,31.6,19.8,30.37,NE,48,8.0,16.0,61,0.00,,,0.00,meteohub,2013-04-21 05:59:00,
2013-04-21 02:04:00,31.6,19.8,30.38,NNE,33,1.0,16.0,61,0.00,,,0.00,meteohub,2013-04-21 06:04:00,
2013-04-21 02:10:00,31.5,19.9,30.38,NE,52,2.0,16.0,62,0.00,,,0.00,meteohub,2013-04-21 06:10:00,
2013-04-21 02:15:00,31.5,19.9,30.38,ENE,77,0.0,16.0,62,0.00,,,0.00,meteohub,2013-04-21 06:15:00,
2013-04-21 02:20:00,31.3,19.8,30.39,NE,52,0.0,16.0,62,0.00,,,0.00,meteohub,2013-04-21 06:20:00,
2013-04-21 02:25:00,31.3,19.4,30.39,NNE,32,2.0,16.0,61,0.00,,,0.00,meteohub,2013-04-21 06:25:00,
2013-04-21 02:30:00,31.3,20.1,30.39,ENE,64,7.0,12.0,63,0.00,,,0.00,meteohub,2013-04-21 06:30:00,
2013-04-21 02:35:00,30.9,19.8,30.39,NNE,29,2.0,12.0,63,0.00,,,0.00,meteohub,2013-04-21 06:35:00,
2013-04-21 02:40:00,30.9,19.8,30.39,ENE,75,5.0,8.0,63,0.00,,,0.00,meteohub,2013-04-21 06:40:00,
2013-04-21 02:45:00,30.9,19.8,30.39,NE,47,2.0,8.0,63,0.00,,,0.00,meteohub,2013-04-21 06:45:00,
2013-04-21 02:50:00,30.7,19.6,30.39,ENE,61,1.0,8.0,63,0.00,,,0.00,meteohub,2013-04-21 06:50:00,
2013-04-21 02:55:00,30.7,19.6,30.40,ENE,75,4.0,8.0,63,0.00,,,0.00,meteohub,2013-04-21 06:55:00,
2013-04-21 03:00:00,30.6,19.8,30.39,WNW,288,2.0,8.0,64,0.00,,,0.00,meteohub,2013-04-21 07:00:00,
2013-04-21 03:05:00,30.6,19.4,30.40,NNE,16,0.0,8.0,63,0.00,,,0.00,meteohub,2013-04-21 07:05:00,
2013-04-21 03:10:00,30.6,19.8,30.39,NE,42,7.0,8.0,64,0.00,,,0.00,meteohub,2013-04-21 07:10:00,
2013-04-21 03:16:00,30.6,19.8,30.40,NE,50,1.0,15.0,64,0.00,,,0.00,meteohub,2013-04-21 07:16:00,
2013-04-21 03:21:00,30.6,19.4,30.40,NE,50,2.0,15.0,63,0.00,,,0.00,meteohub,2013-04-21 07:21:00,
2013-04-21 03:26:00,30.4,19.6,30.40,NE,50,1.0,15.0,64,0.00,,,0.00,meteohub,2013-04-21 07:26:00,
2013-04-21 03:31:00,30.4,19.6,30.40,NNE,14,4.0,16.0,64,0.00,,,0.00,meteohub,2013-04-21 07:31:00,
2013-04-21 03:36:00,30.4,19.6,30.41,North,359,5.0,16.0,64,0.00,,,0.00,meteohub,2013-04-21 07:36:00,
2013-04-21 03:41:00,30.6,19.4,30.41,NE,38,4.0,9.0,63,0.00,,,0.00,meteohub,2013-04-21 07:41:00,
2013-04-21 03:46:00,30.6,19.8,30.42,North,351,2.0,9.0,64,0.00,,,0.00,meteohub,2013-04-21 07:46:00,
2013-04-21 03:51:00,30.6,19.8,30.42,North,356,1.0,9.0,64,0.00,,,0.00,meteohub,2013-04-21 07:51:00,
2013-04-21 03:56:00,30.6,20.1,30.42,NE,44,2.0,9.0,65,0.00,,,0.00,meteohub,2013-04-21 07:56:00,
2013-04-21 04:01:00,30.6,20.5,30.42,ENE,75,2.0,8.0,66,0.00,,,0.00,meteohub,2013-04-21 08:01:00,
2013-04-21 04:06:00,30.6,20.5,30.42,NNW,343,0.0,8.0,66,0.00,,,0.00,meteohub,2013-04-21 08:06:00,
2013-04-21 04:12:00,30.7,20.7,30.42,NE,48,0.0,12.0,66,0.00,,,0.00,meteohub,2013-04-21 08:12:00,
2013-04-21 04:17:00,30.7,21.0,30.43,East,82,8.0,12.0,67,0.00,,,0.00,meteohub,2013-04-21 08:17:00,
2013-04-21 04:22:00,30.7,20.7,30.43,NNE,20,1.0,12.0,66,0.00,,,0.00,meteohub,2013-04-21 08:22:00,
2013-04-21 04:27:00,30.7,20.7,30.43,North,2,5.0,12.0,66,0.00,,,0.00,meteohub,2013-04-21 08:27:00,
2013-04-21 04:32:00,30.7,20.7,30.43,NE,50,0.0,11.0,66,0.00,,,0.00,meteohub,2013-04-21 08:32:00,
2013-04-21 04:37:00,30.7,20.7,30.43,NE,50,2.0,11.0,66,0.00,,,0.00,meteohub,2013-04-21 08:37:00,
2013-04-21 04:42:00,30.7,20.3,30.43,ENE,62,7.0,9.0,65,0.00,,,0.00,meteohub,2013-04-21 08:42:00,
2013-04-21 04:47:00,30.7,20.3,30.44,East,79,7.0,9.0,65,0.00,,,0.00,meteohub,2013-04-21 08:47:00,
2013-04-21 04:52:00,30.7,20.3,30.44,NE,35,2.0,9.0,65,0.00,,,0.00,meteohub,2013-04-21 08:52:00,
2013-04-21 04:57:00,30.7,19.9,30.44,NNE,27,6.0,10.0,64,0.00,,,0.00,meteohub,2013-04-21 08:57:00,
2013-04-21 05:02:00,30.7,19.6,30.44,NNE,15,1.0,10.0,63,0.00,,,0.00,meteohub,2013-04-21 09:02:00,
2013-04-21 05:07:00,30.7,19.6,30.44,North,349,0.0,10.0,63,0.00,,,0.00,meteohub,2013-04-21 09:07:00,
2013-04-21 05:12:00,30.7,19.2,30.45,ENE,74,2.0,10.0,62,0.00,,,0.00,meteohub,2013-04-21 09:12:00,
2013-04-21 05:17:00,30.7,19.6,30.45,NE,35,2.0,13.0,63,0.00,,,0.00,meteohub,2013-04-21 09:17:00,
2013-04-21 05:22:00,30.7,19.6,30.45,SW,233,1.0,13.0,63,0.00,,,0.00,meteohub,2013-04-21 09:22:00,
2013-04-21 05:27:00,30.7,19.6,30.45,ENE,67,5.0,13.0,63,0.00,,,0.00,meteohub,2013-04-21 09:27:00,
2013-04-21 05:32:00,30.7,19.6,30.46,North,4,5.0,9.0,63,0.00,,,0.00,meteohub,2013-04-21 09:32:00,
2013-04-21 05:37:00,30.7,19.2,30.46,NNW,343,1.0,9.0,62,0.00,,,0.00,meteohub,2013-04-21 09:37:00,
2013-04-21 05:42:00,30.6,19.0,30.47,ENE,70,0.0,9.0,62,0.00,,,0.00,meteohub,2013-04-21 09:42:00,
2013-04-21 05:47:00,30.6,19.0,30.47,North,350,2.0,9.0,62,0.00,,,0.00,meteohub,2013-04-21 09:47:00,
2013-04-21 05:52:00,30.6,18.7,30.47,ENE,75,1.0,7.0,61,0.00,,,0.00,meteohub,2013-04-21 09:52:00,
2013-04-21 05:57:00,30.4,18.5,30.48,NNE,18,2.0,7.0,61,0.00,,,0.00,meteohub,2013-04-21 09:57:00,
2013-04-21 06:02:00,30.2,18.0,30.48,NE,42,6.0,7.0,60,0.00,,,0.00,meteohub,2013-04-21 10:02:00,
2013-04-21 06:07:00,30.0,17.4,30.48,NNE,16,1.0,7.0,59,0.00,,,0.00,meteohub,2013-04-21 10:07:00,
2013-04-21 06:12:00,29.8,17.2,30.49,ENE,63,7.0,7.0,59,0.00,,,0.00,meteohub,2013-04-21 10:12:00,
2013-04-21 06:17:00,29.8,17.2,30.50,East,83,1.0,14.0,59,0.00,,,0.00,meteohub,2013-04-21 10:17:00,
2013-04-21 06:22:00,29.7,17.1,30.50,NNE,23,3.0,14.0,59,0.00,,,0.00,meteohub,2013-04-21 10:22:00,
2013-04-21 06:27:00,29.7,17.1,30.51,NE,48,4.0,14.0,59,0.00,,,0.00,meteohub,2013-04-21 10:27:00,
2013-04-21 06:32:00,29.7,17.1,30.51,West,275,2.0,14.0,59,0.00,,,0.00,meteohub,2013-04-21 10:32:00,
2013-04-21 06:37:00,29.5,17.2,30.51,ENE,69,0.0,11.0,60,0.00,,,0.00,meteohub,2013-04-21 10:37:00,
2013-04-21 06:42:00,29.5,17.2,30.51,NNW,338,2.0,11.0,60,0.00,,,0.00,meteohub,2013-04-21 10:42:00,
2013-04-21 06:47:00,29.3,17.1,30.51,ENE,67,4.0,11.0,60,0.00,,,0.00,meteohub,2013-04-21 10:47:00,
2013-04-21 06:52:00,29.5,17.2,30.52,North,8,0.0,11.0,60,0.00,,,0.00,meteohub,2013-04-21 10:52:00,
2013-04-21 06:57:00,29.5,17.8,30.52,East,81,5.0,11.0,61,0.00,,,0.00,meteohub,2013-04-21 10:57:00,
2013-04-21 07:02:00,29.5,17.2,30.52,North,350,5.0,10.0,60,0.00,,,0.00,meteohub,2013-04-21 11:02:00,
2013-04-21 07:07:00,29.7,17.8,30.53,ENE,66,9.0,10.0,61,0.00,,,0.00,meteohub,2013-04-21 11:07:00,
2013-04-21 07:12:00,29.7,17.4,30.53,North,356,3.0,10.0,60,0.00,,,0.00,meteohub,2013-04-21 11:12:00,
2013-04-21 07:17:00,29.7,17.8,30.53,North,8,3.0,13.0,61,0.00,,,0.00,meteohub,2013-04-21 11:17:00,
2013-04-21 07:22:00,29.8,17.6,30.54,ESE,102,0.0,13.0,60,0.00,,,0.00,meteohub,2013-04-21 11:22:00,
2013-04-21 07:27:00,29.8,17.6,30.54,North,358,2.0,13.0,60,0.00,,,0.00,meteohub,2013-04-21 11:27:00,
2013-04-21 07:32:00,29.8,18.0,30.54,ENE,61,2.0,11.0,61,0.00,,,0.00,meteohub,2013-04-21 11:32:00,
2013-04-21 07:37:00,29.8,18.0,30.54,NNE,27,6.0,11.0,61,0.00,,,0.00,meteohub,2013-04-21 11:37:00,
2013-04-21 07:42:00,30.0,18.1,30.55,ENE,58,5.0,11.0,61,0.00,,,0.00,meteohub,2013-04-21 11:42:00,
2013-04-21 07:47:00,30.2,18.3,30.55,ESE,104,1.0,11.0,61,0.00,,,0.00,meteohub,2013-04-21 11:47:00,
2013-04-21 07:52:00,30.6,18.3,30.55,NE,37,4.0,9.0,60,0.00,,,0.00,meteohub,2013-04-21 11:52:00,
2013-04-21 07:57:00,30.7,18.1,30.55,NW,323,2.0,9.0,59,0.00,,,0.00,meteohub,2013-04-21 11:57:00,
2013-04-21 08:02:00,30.9,18.0,30.56,NNW,339,3.0,9.0,58,0.00,,,0.00,meteohub,2013-04-21 12:02:00,
2013-04-21 08:07:00,31.3,18.7,30.56,NNE,28,6.0,9.0,59,0.00,,,0.00,meteohub,2013-04-21 12:07:00,
2013-04-21 08:12:00,31.6,18.1,30.56,ENE,73,2.0,9.0,57,0.00,,,0.00,meteohub,2013-04-21 12:12:00,
2013-04-21 08:17:00,31.8,18.3,30.57,East,81,5.0,10.0,57,0.00,,,0.00,meteohub,2013-04-21 12:17:00,
2013-04-21 08:22:00,32.2,18.7,30.57,NNE,22,4.0,10.0,57,0.00,,,0.00,meteohub,2013-04-21 12:22:00,
2013-04-21 08:27:00,32.5,18.5,30.58,ENE,75,4.0,10.0,56,0.00,,,0.00,meteohub,2013-04-21 12:27:00,
2013-04-21 08:32:00,32.7,19.6,30.57,North,350,12.0,12.0,58,0.00,,,0.00,meteohub,2013-04-21 12:32:00,
2013-04-21 08:37:00,32.4,18.0,30.58,SW,233,5.0,11.0,55,0.00,,,0.00,meteohub,2013-04-21 12:37:00,
2013-04-21 08:42:00,32.4,17.6,30.58,SW,230,8.0,11.0,54,0.00,,,0.00,meteohub,2013-04-21 12:42:00,
2013-04-21 08:47:00,32.5,18.5,30.58,ENE,58,7.0,11.0,56,0.00,,,0.00,meteohub,2013-04-21 12:47:00,
2013-04-21 08:52:00,33.1,18.3,30.58,ESE,102,1.0,15.0,54,0.00,,,0.00,meteohub,2013-04-21 12:52:00,
2013-04-21 08:57:00,33.3,18.5,30.58,ENE,69,4.0,15.0,54,0.00,,,0.00,meteohub,2013-04-21 12:57:00,
2013-04-21 09:02:00,33.4,18.1,30.58,NE,47,0.0,15.0,53,0.00,,,0.00,meteohub,2013-04-21 13:02:00,
2013-04-21 09:07:00,33.8,18.5,30.58,North,0,4.0,15.0,53,0.00,,,0.00,meteohub,2013-04-21 13:07:00,
2013-04-21 09:12:00,34.0,17.8,30.59,SW,227,5.0,15.0,51,0.00,,,0.00,meteohub,2013-04-21 13:12:00,
2013-04-21 09:17:00,34.2,18.9,30.59,East,98,0.0,12.0,53,0.00,,,0.00,meteohub,2013-04-21 13:17:00,
2013-04-21 09:22:00,34.7,18.5,30.59,North,349,2.0,12.0,51,0.00,,,0.00,meteohub,2013-04-21 13:22:00,
2013-04-21 09:27:00,34.9,19.0,30.59,ENE,76,7.0,12.0,52,0.00,,,0.00,meteohub,2013-04-21 13:27:00,
2013-04-21 09:32:00,35.4,19.0,30.58,ENE,72,0.0,9.0,51,0.00,,,0.00,meteohub,2013-04-21 13:32:00,
2013-04-21 09:37:00,35.8,18.5,30.59,North,1,1.0,9.0,49,0.00,,,0.00,meteohub,2013-04-21 13:37:00,
2013-04-21 09:42:00,35.6,18.3,30.59,West,273,2.0,9.0,49,0.00,,,0.00,meteohub,2013-04-21 13:42:00,
2013-04-21 09:47:00,35.8,19.9,30.59,NNW,348,7.0,9.0,52,0.00,,,0.00,meteohub,2013-04-21 13:47:00,
2013-04-21 09:52:00,35.8,18.0,30.59,East,82,2.0,11.0,48,0.00,,,0.00,meteohub,2013-04-21 13:52:00,
2013-04-21 09:57:00,36.3,19.4,30.59,ENE,65,0.0,11.0,50,0.00,,,0.00,meteohub,2013-04-21 13:57:00,
2013-04-21 10:02:00,36.9,19.4,30.59,East,80,1.0,11.0,49,0.00,,,0.00,meteohub,2013-04-21 14:02:00,
2013-04-21 10:07:00,37.6,19.6,30.59,NE,46,1.0,11.0,48,0.00,,,0.00,meteohub,2013-04-21 14:07:00,
2013-04-21 10:13:00,37.6,19.6,30.59,ENE,58,0.0,9.0,48,0.00,,,0.00,meteohub,2013-04-21 14:13:00,
2013-04-21 10:18:00,37.8,19.8,30.59,NE,37,1.0,9.0,48,0.00,,,0.00,meteohub,2013-04-21 14:18:00,
2013-04-21 10:23:00,38.3,19.8,30.60,ENE,65,5.0,9.0,47,0.00,,,0.00,meteohub,2013-04-21 14:23:00,
2013-04-21 10:28:00,38.8,19.8,30.60,ENE,64,8.0,9.0,46,0.00,,,0.00,meteohub,2013-04-21 14:28:00,
2013-04-21 10:33:00,38.8,19.4,30.60,NE,54,8.0,12.0,45,0.00,,,0.00,meteohub,2013-04-21 14:33:00,
2013-04-21 10:38:00,39.0,19.4,30.60,East,79,0.0,12.0,45,0.00,,,0.00,meteohub,2013-04-21 14:38:00,
2013-04-21 10:43:00,39.7,20.7,30.60,ENE,74,4.0,12.0,46,0.00,,,0.00,meteohub,2013-04-21 14:43:00,
2013-04-21 10:48:00,39.9,19.8,30.60,NNE,31,5.0,12.0,44,0.00,,,0.00,meteohub,2013-04-21 14:48:00,
2013-04-21 10:53:00,40.3,19.0,30.60,ENE,70,6.0,12.0,42,0.00,,,0.00,meteohub,2013-04-21 14:53:00,
2013-04-21 10:58:00,40.8,19.6,30.60,East,80,1.0,12.0,42,0.00,,,0.00,meteohub,2013-04-21 14:58:00,
2013-04-21 11:03:00,41.4,19.4,30.60,East,79,2.0,12.0,41,0.00,,,0.00,meteohub,2013-04-21 15:03:00,
2013-04-21 11:09:00,41.5,20.1,30.60,ENE,75,1.0,12.0,42,0.00,,,0.00,meteohub,2013-04-21 15:09:00,
2013-04-21 11:14:00,41.4,19.9,30.61,NE,53,4.0,9.0,42,0.00,,,0.00,meteohub,2013-04-21 15:14:00,
2013-04-21 11:19:00,41.2,19.2,30.61,NNE,15,5.0,9.0,41,0.00,,,0.00,meteohub,2013-04-21 15:19:00,
2013-04-21 11:24:00,41.4,18.9,30.61,ENE,73,1.0,9.0,40,0.00,,,0.00,meteohub,2013-04-21 15:24:00,
2013-04-21 11:29:00,42.1,20.1,30.61,ENE,60,4.0,9.0,41,0.00,,,0.00,meteohub,2013-04-21 15:29:00,
2013-04-21 11:34:00,42.4,19.8,30.61,NNW,348,3.0,14.0,40,0.00,,,0.00,meteohub,2013-04-21 15:34:00,
2013-04-21 11:39:00,42.1,17.6,30.61,East,82,1.0,14.0,37,0.00,,,0.00,meteohub,2013-04-21 15:39:00,
2013-04-21 11:44:00,42.3,19.0,30.61,ENE,65,5.0,14.0,39,0.00,,,0.00,meteohub,2013-04-21 15:44:00,
2013-04-21 11:49:00,42.6,21.7,30.61,ENE,75,0.0,12.0,43,0.00,,,0.00,meteohub,2013-04-21 15:49:00,
2013-04-21 11:54:00,43.0,19.0,30.61,NE,39,5.0,12.0,38,0.00,,,0.00,meteohub,2013-04-21 15:54:00,
2013-04-21 11:59:00,43.5,20.8,30.61,ENE,69,4.0,12.0,40,0.00,,,0.00,meteohub,2013-04-21 15:59:00,
2013-04-21 12:04:00,43.9,20.5,30.61,NE,44,2.0,9.0,39,0.00,,,0.00,meteohub,2013-04-21 16:04:00,
2013-04-21 12:09:00,44.2,20.3,30.61,ENE,62,6.0,9.0,38,0.00,,,0.00,meteohub,2013-04-21 16:09:00,
2013-04-21 12:15:00,44.6,20.5,30.61,ENE,61,5.0,9.0,38,0.00,,,0.00,meteohub,2013-04-21 16:15:00,
2013-04-21 12:20:00,45.1,19.8,30.61,NNW,346,3.0,14.0,36,0.00,,,0.00,meteohub,2013-04-21 16:20:00,
2013-04-21 12:25:00,45.7,20.8,30.61,ENE,76,5.0,14.0,37,0.00,,,0.00,meteohub,2013-04-21 16:25:00,
2013-04-21 12:30:00,45.9,20.5,30.61,East,98,2.0,14.0,36,0.00,,,0.00,meteohub,2013-04-21 16:30:00,
2013-04-21 12:35:00,46.0,18.5,30.61,NNE,28,4.0,14.0,33,0.00,,,0.00,meteohub,2013-04-21 16:35:00,
2013-04-21 12:40:00,45.3,19.9,30.61,NE,37,6.0,11.0,36,0.00,,,0.00,meteohub,2013-04-21 16:40:00,
2013-04-21 12:45:00,45.1,20.5,30.60,East,94,4.0,11.0,37,0.00,,,0.00,meteohub,2013-04-21 16:45:00,
2013-04-21 12:50:00,45.9,21.0,30.60,ENE,65,4.0,11.0,37,0.00,,,0.00,meteohub,2013-04-21 16:50:00,
2013-04-21 12:55:00,46.2,20.7,30.60,East,97,4.0,11.0,36,0.00,,,0.00,meteohub,2013-04-21 16:55:00,
2013-04-21 13:00:00,46.2,19.4,30.60,East,85,5.0,11.0,34,0.00,,,0.00,meteohub,2013-04-21 17:00:00,
2013-04-21 13:05:00,46.6,21.0,30.60,NNW,341,2.0,11.0,36,0.00,,,0.00,meteohub,2013-04-21 17:05:00,
2013-04-21 13:10:00,46.4,19.6,30.60,North,0,3.0,12.0,34,0.00,,,0.00,meteohub,2013-04-21 17:10:00,
2013-04-21 13:16:00,45.0,16.9,30.60,WSW,237,0.0,12.0,32,0.00,,,0.00,meteohub,2013-04-21 17:16:00,
2013-04-21 13:21:00,45.7,23.4,30.60,ENE,71,2.0,9.0,41,0.00,,,0.00,meteohub,2013-04-21 17:21:00,
2013-04-21 13:26:00,46.4,19.6,30.60,NNW,346,0.0,9.0,34,0.00,,,0.00,meteohub,2013-04-21 17:26:00,
2013-04-21 13:31:00,47.3,23.5,30.60,WNW,282,3.0,7.0,39,0.00,,,0.00,meteohub,2013-04-21 17:31:00,
2013-04-21 13:36:00,47.5,23.2,30.60,ESE,123,2.0,7.0,38,0.00,,,0.00,meteohub,2013-04-21 17:36:00,
2013-04-21 13:41:00,48.4,23.9,30.60,ENE,74,4.0,7.0,38,0.00,,,0.00,meteohub,2013-04-21 17:41:00,
2013-04-21 13:46:00,48.7,23.0,30.60,East,90,1.0,7.0,36,0.00,,,0.00,meteohub,2013-04-21 17:46:00,
2013-04-21 13:51:00,49.6,25.0,30.60,East,90,0.0,8.0,38,0.00,,,0.00,meteohub,2013-04-21 17:51:00,
2013-04-21 13:56:00,50.4,24.4,30.59,East,84,4.0,8.0,36,0.00,,,0.00,meteohub,2013-04-21 17:56:00,
2013-04-21 14:01:00,50.5,21.7,30.59,East,80,1.0,6.0,32,0.00,,,0.00,meteohub,2013-04-21 18:01:00,
2013-04-21 14:06:00,49.3,23.5,30.59,ENE,66,4.0,6.0,36,0.00,,,0.00,meteohub,2013-04-21 18:06:00,
2013-04-21 14:11:00,49.3,20.7,30.59,East,83,4.0,6.0,32,0.00,,,0.00,meteohub,2013-04-21 18:11:00,
2013-04-21 14:16:00,49.6,20.3,30.59,NE,50,4.0,8.0,31,0.00,,,0.00,meteohub,2013-04-21 18:16:00,
2013-04-21 14:22:00,50.0,19.8,30.59,ENE,77,2.0,8.0,30,0.00,,,0.00,meteohub,2013-04-21 18:22:00,
2013-04-21 14:27:00,49.8,24.6,30.59,North,358,2.0,8.0,37,0.00,,,0.00,meteohub,2013-04-21 18:27:00,
2013-04-21 14:32:00,49.3,20.7,30.59,NE,54,5.0,8.0,32,0.00,,,0.00,meteohub,2013-04-21 18:32:00,
2013-04-21 14:37:00,48.7,18.7,30.59,NNW,332,4.0,8.0,30,0.00,,,0.00,meteohub,2013-04-21 18:37:00,
2013-04-21 14:42:00,48.2,21.2,30.58,ENE,70,0.0,8.0,34,0.00,,,0.00,meteohub,2013-04-21 18:42:00,
2013-04-21 14:47:00,49.1,22.6,30.58,NNE,13,1.0,8.0,35,0.00,,,0.00,meteohub,2013-04-21 18:47:00,
2013-04-21 14:52:00,50.0,20.5,30.58,NNW,327,3.0,7.0,31,0.00,,,0.00,meteohub,2013-04-21 18:52:00,
2013-04-21 14:57:00,49.3,20.7,30.58,East,88,1.0,7.0,32,0.00,,,0.00,meteohub,2013-04-21 18:57:00,
2013-04-21 15:02:00,49.5,25.5,30.58,ENE,76,2.0,8.0,39,0.00,,,0.00,meteohub,2013-04-21 19:02:00,
2013-04-21 15:07:00,50.5,20.3,30.58,NNW,346,0.0,8.0,30,0.00,,,0.00,meteohub,2013-04-21 19:07:00,
2013-04-21 15:12:00,51.4,21.0,30.58,NNW,339,6.0,8.0,30,0.00,,,0.00,meteohub,2013-04-21 19:12:00,
2013-04-21 15:17:00,50.5,19.4,30.58,NE,55,0.0,6.0,29,0.00,,,0.00,meteohub,2013-04-21 19:17:00,
2013-04-21 15:22:00,51.4,21.7,30.58,NNW,337,2.0,6.0,31,0.00,,,0.00,meteohub,2013-04-21 19:22:00,
2013-04-21 15:27:00,51.1,19.9,30.58,SSW,200,1.0,6.0,29,0.00,,,0.00,meteohub,2013-04-21 19:27:00,
2013-04-21 15:32:00,51.1,18.3,30.58,SW,234,2.0,9.0,27,0.00,,,0.00,meteohub,2013-04-21 19:32:00,
2013-04-21 15:37:00,51.3,22.5,30.58,ENE,72,5.0,9.0,32,0.00,,,0.00,meteohub,2013-04-21 19:37:00,
2013-04-21 15:42:00,52.9,28.0,30.57,East,91,2.0,9.0,38,0.00,,,0.00,meteohub,2013-04-21 19:42:00,
2013-04-21 15:47:00,54.3,25.9,30.58,ENE,58,1.0,9.0,33,0.00,,,0.00,meteohub,2013-04-21 19:47:00,
2013-04-21 15:52:00,55.2,25.2,30.57,East,83,0.0,9.0,31,0.00,,,0.00,meteohub,2013-04-21 19:52:00,
2013-04-21 15:57:00,55.0,19.8,30.57,ENE,59,5.0,9.0,25,0.00,,,0.00,meteohub,2013-04-21 19:57:00,
2013-04-21 16:02:00,55.0,19.8,30.57,NNE,24,4.0,9.0,25,0.00,,,0.00,meteohub,2013-04-21 20:02:00,
2013-04-21 16:07:00,54.5,20.3,30.57,ESE,110,0.0,9.0,26,0.00,,,0.00,meteohub,2013-04-21 20:07:00,
2013-04-21 16:12:00,53.2,18.3,30.57,West,261,1.0,9.0,25,0.00,,,0.00,meteohub,2013-04-21 20:12:00,
2013-04-21 16:17:00,52.0,17.2,30.57,WSW,250,0.0,6.0,25,0.00,,,0.00,meteohub,2013-04-21 20:17:00,
2013-04-21 16:22:00,52.9,24.6,30.57,SSE,158,2.0,6.0,33,0.00,,,0.00,meteohub,2013-04-21 20:22:00,
2013-04-21 16:27:00,54.1,25.0,30.57,SSE,155,1.0,6.0,32,0.00,,,0.00,meteohub,2013-04-21 20:27:00,
2013-04-21 16:32:00,55.2,21.7,30.57,NNW,345,0.0,4.0,27,0.00,,,0.00,meteohub,2013-04-21 20:32:00,
2013-04-21 16:37:00,53.4,18.5,30.57,NNW,335,0.0,4.0,25,0.00,,,0.00,meteohub,2013-04-21 20:37:00,
2013-04-21 16:42:00,51.6,19.6,30.57,WSW,243,2.0,6.0,28,0.00,,,0.00,meteohub,2013-04-21 20:42:00,
2013-04-21 16:47:00,50.5,20.3,30.57,East,81,0.0,6.0,30,0.00,,,0.00,meteohub,2013-04-21 20:47:00,
2013-04-21 16:52:00,51.6,21.9,30.57,SE,124,0.0,5.0,31,0.00,,,0.00,meteohub,2013-04-21 20:52:00,
2013-04-21 16:57:00,52.7,18.7,30.57,West,262,3.0,5.0,26,0.00,,,0.00,meteohub,2013-04-21 20:57:00,
2013-04-21 17:02:00,52.0,22.3,30.57,WSW,253,0.0,5.0,31,0.00,,,0.00,meteohub,2013-04-21 21:02:00,
2013-04-21 17:07:00,52.5,21.2,30.57,NNE,19,2.0,5.0,29,0.00,,,0.00,meteohub,2013-04-21 21:07:00,
2013-04-21 17:12:00,52.3,18.5,30.57,NE,48,6.0,6.0,26,0.00,,,0.00,meteohub,2013-04-21 21:12:00,
2013-04-21 17:17:00,53.1,20.8,30.57,North,358,2.0,6.0,28,0.00,,,0.00,meteohub,2013-04-21 21:17:00,
2013-04-21 17:22:00,53.8,19.8,30.57,ENE,67,0.0,6.0,26,0.00,,,0.00,meteohub,2013-04-21 21:22:00,
2013-04-21 17:27:00,53.8,18.9,30.57,North,350,4.0,6.0,25,0.00,,,0.00,meteohub,2013-04-21 21:27:00,
2013-04-21 17:32:00,52.2,19.2,30.58,North,353,3.0,6.0,27,0.00,,,0.00,meteohub,2013-04-21 21:32:00,
2013-04-21 17:37:00,50.9,18.1,30.58,West,273,0.0,6.0,27,0.00,,,0.00,meteohub,2013-04-21 21:37:00,
2013-04-21 17:42:00,50.7,20.5,30.58,ENE,69,2.0,5.0,30,0.00,,,0.00,meteohub,2013-04-21 21:42:00,
2013-04-21 17:47:00,51.6,20.3,30.58,ENE,59,2.0,5.0,29,0.00,,,0.00,meteohub,2013-04-21 21:47:00,
2013-04-21 17:52:00,52.2,22.5,30.58,East,82,0.0,5.0,31,0.00,,,0.00,meteohub,2013-04-21 21:52:00,
2013-04-21 17:57:00,51.3,20.8,30.58,East,82,1.0,5.0,30,0.00,,,0.00,meteohub,2013-04-21 21:57:00,
2013-04-21 18:02:00,49.8,19.6,30.58,East,81,0.0,5.0,30,0.00,,,0.00,meteohub,2013-04-21 22:02:00,
2013-04-21 18:07:00,48.6,18.5,30.58,East,81,0.0,5.0,30,0.00,,,0.00,meteohub,2013-04-21 22:07:00,
2013-04-21 18:12:00,48.0,20.3,30.58,East,81,0.0,5.0,33,0.00,,,0.00,meteohub,2013-04-21 22:12:00,
2013-04-21 18:17:00,47.7,23.9,30.59,South,180,1.0,5.0,39,0.00,,,0.00,meteohub,2013-04-21 22:17:00,
2013-04-21 18:22:00,46.6,22.3,30.59,ESE,119,0.0,4.0,38,0.00,,,0.00,meteohub,2013-04-21 22:22:00,
2013-04-21 18:27:00,45.9,21.0,30.59,SW,224,1.0,4.0,37,0.00,,,0.00,meteohub,2013-04-21 22:27:00,
2013-04-21 18:32:00,45.5,20.7,30.59,SSE,165,5.0,5.0,37,0.00,,,0.00,meteohub,2013-04-21 22:32:00,
2013-04-21 18:37:00,45.1,21.0,30.60,South,179,5.0,7.0,38,0.00,,,0.00,meteohub,2013-04-21 22:37:00,
2013-04-21 18:42:00,45.0,20.8,30.60,West,270,3.0,7.0,38,0.00,,,0.00,meteohub,2013-04-21 22:42:00,
2013-04-21 18:47:00,44.4,21.6,30.60,South,176,1.0,7.0,40,0.00,,,0.00,meteohub,2013-04-21 22:47:00,
2013-04-21 18:52:00,44.2,21.4,30.60,WSW,237,0.0,7.0,40,0.00,,,0.00,meteohub,2013-04-21 22:52:00,
2013-04-21 18:57:00,44.1,23.5,30.60,SW,219,2.0,8.0,44,0.00,,,0.00,meteohub,2013-04-21 22:57:00,
2013-04-21 19:02:00,43.5,23.0,30.60,SW,219,0.0,8.0,44,0.00,,,0.00,meteohub,2013-04-21 23:02:00,
2013-04-21 19:07:00,43.2,23.7,30.61,South,179,0.0,8.0,46,0.00,,,0.00,meteohub,2013-04-21 23:07:00,
2013-04-21 19:12:00,42.6,22.8,30.61,SW,220,2.0,4.0,45,0.00,,,0.00,meteohub,2013-04-21 23:12:00,
2013-04-21 19:17:00,42.6,22.8,30.61,SW,235,2.0,4.0,45,0.00,,,0.00,meteohub,2013-04-21 23:17:00,
2013-04-21 19:22:00,43.0,21.4,30.61,SSW,212,1.0,7.0,42,0.00,,,0.00,meteohub,2013-04-21 23:22:00,
2013-04-21 19:27:00,42.6,21.7,30.61,SSW,212,0.0,7.0,43,0.00,,,0.00,meteohub,2013-04-21 23:27:00,
2013-04-21 19:32:00,42.3,23.5,30.62,SSW,212,0.0,4.0,47,0.00,,,0.00,meteohub,2013-04-21 23:32:00,
2013-04-21 19:37:00,41.7,25.0,30.62,SSW,212,0.0,4.0,51,0.00,,,0.00,meteohub,2013-04-21 23:37:00,
2013-04-21 19:42:00,40.8,25.5,30.62,SSW,212,0.0,4.0,54,0.00,,,0.00,meteohub,2013-04-21 23:42:00,
2013-04-21 19:47:00,40.3,25.9,30.62,SSW,212,0.0,4.0,56,0.00,,,0.00,meteohub,2013-04-21 23:47:00,
2013-04-21 19:53:00,39.7,26.6,30.63,SSW,212,0.0,1.0,59,0.00,,,0.00,meteohub,2013-04-21 23:53:00,
2013-04-21 19:58:00,39.2,26.1,30.63,SSW,212,0.0,1.0,59,0.00,,,0.00,meteohub,2013-04-21 23:58:00,
2013-04-21 20:03:00,38.7,26.1,30.63,SSW,212,0.0,1.0,60,0.00,,,0.00,meteohub,2013-04-22 00:03:00,
2013-04-21 20:08:00,38.3,25.7,30.63,SSW,212,0.0,1.0,60,0.00,,,0.00,meteohub,2013-04-22 00:08:00,
2013-04-21 20:13:00,37.8,24.8,30.63,SSW,212,0.0,1.0,59,0.00,,,0.00,meteohub,2013-04-22 00:13:00,
2013-04-21 20:18:00,37.2,25.0,30.64,SSW,212,0.0,1.0,61,0.00,,,0.00,meteohub,2013-04-22 00:18:00,
2013-04-21 20:23:00,36.9,24.6,30.64,SSW,212,0.0,1.0,61,0.00,,,0.00,meteohub,2013-04-22 00:23:00,
2013-04-21 20:28:00,36.9,25.5,30.64,SSW,212,0.0,1.0,63,0.00,,,0.00,meteohub,2013-04-22 00:28:00,
2013-04-21 20:33:00,36.7,25.3,30.64,SSW,212,0.0,1.0,63,0.00,,,0.00,meteohub,2013-04-22 00:33:00,
2013-04-21 20:38:00,36.3,24.6,30.64,SSW,212,0.0,1.0,62,0.00,,,0.00,meteohub,2013-04-22 00:38:00,
2013-04-21 20:43:00,36.0,25.0,30.65,SSW,212,0.0,1.0,64,0.00,,,0.00,meteohub,2013-04-22 00:43:00,
2013-04-21 20:48:00,35.6,25.3,30.65,SSW,212,0.0,1.0,66,0.00,,,0.00,meteohub,2013-04-22 00:48:00,
2013-04-21 20:53:00,35.2,25.0,30.65,SSW,212,0.0,1.0,66,0.00,,,0.00,meteohub,2013-04-22 00:53:00,
2013-04-21 20:59:00,35.1,25.2,30.65,SSW,212,0.0,1.0,67,0.00,,,0.00,meteohub,2013-04-22 00:59:00,
2013-04-21 21:04:00,34.9,25.3,30.66,SSW,212,0.0,2.0,68,0.00,,,0.00,meteohub,2013-04-22 01:04:00,
2013-04-21 21:09:00,34.7,25.2,30.66,SSW,212,0.0,2.0,68,0.00,,,0.00,meteohub,2013-04-22 01:09:00,
2013-04-21 21:14:00,34.5,25.0,30.66,SSW,212,0.0,2.0,68,0.00,,,0.00,meteohub,2013-04-22 01:14:00,
2013-04-21 21:19:00,34.3,25.9,30.66,SSW,212,0.0,2.0,71,0.00,,,0.00,meteohub,2013-04-22 01:19:00,
2013-04-21 21:24:00,34.0,25.5,30.66,SSW,212,0.0,2.0,71,0.00,,,0.00,meteohub,2013-04-22 01:24:00,
2013-04-21 21:29:00,33.8,25.0,30.66,SSW,212,0.0,1.0,70,0.00,,,0.00,meteohub,2013-04-22 01:29:00,
2013-04-21 21:34:00,33.6,25.2,30.67,SSW,212,0.0,1.0,71,0.00,,,0.00,meteohub,2013-04-22 01:34:00,
2013-04-21 21:39:00,33.3,24.8,30.67,SSW,212,0.0,1.0,71,0.00,,,0.00,meteohub,2013-04-22 01:39:00,
2013-04-21 21:44:00,33.3,25.2,30.67,SSW,212,0.0,1.0,72,0.00,,,0.00,meteohub,2013-04-22 01:44:00,
2013-04-21 21:49:00,33.4,25.0,30.67,SSW,212,0.0,1.0,71,0.00,,,0.00,meteohub,2013-04-22 01:49:00,
2013-04-21 21:54:00,33.3,25.5,30.67,SSW,212,0.0,1.0,73,0.00,,,0.00,meteohub,2013-04-22 01:54:00,
2013-04-21 21:59:00,33.1,25.7,30.67,SSW,212,2.0,2.0,74,0.00,,,0.00,meteohub,2013-04-22 01:59:00,
2013-04-21 22:05:00,32.7,25.3,30.67,SSW,212,0.0,1.0,74,0.00,,,0.00,meteohub,2013-04-22 02:05:00,
2013-04-21 22:10:00,32.5,25.5,30.67,SSW,212,0.0,1.0,75,0.00,,,0.00,meteohub,2013-04-22 02:10:00,
2013-04-21 22:15:00,32.2,25.5,30.67,SSW,212,0.0,1.0,76,0.00,,,0.00,meteohub,2013-04-22 02:15:00,
2013-04-21 22:20:00,32.2,25.5,30.67,SSW,212,0.0,2.0,76,0.00,,,0.00,meteohub,2013-04-22 02:20:00,
2013-04-21 22:25:00,32.4,25.7,30.67,SSW,212,0.0,2.0,76,0.00,,,0.00,meteohub,2013-04-22 02:25:00,
2013-04-21 22:30:00,32.2,25.2,30.67,SSW,212,0.0,1.0,75,0.00,,,0.00,meteohub,2013-04-22 02:30:00,
2013-04-21 22:35:00,32.0,25.3,30.67,SSW,212,0.0,1.0,76,0.00,,,0.00,meteohub,2013-04-22 02:35:00,
2013-04-21 22:40:00,32.2,25.2,30.67,SSW,212,0.0,1.0,75,0.00,,,0.00,meteohub,2013-04-22 02:40:00,
2013-04-21 22:45:00,31.8,25.2,30.67,SSW,212,0.0,1.0,76,0.00,,,0.00,meteohub,2013-04-22 02:45:00,
2013-04-21 22:50:00,31.6,24.6,30.67,SSW,212,0.0,1.0,75,0.00,,,0.00,meteohub,2013-04-22 02:50:00,
2013-04-21 22:55:00,31.3,24.6,30.67,SSW,212,0.0,1.0,76,0.00,,,0.00,meteohub,2013-04-22 02:55:00,
2013-04-21 23:00:00,30.9,24.6,30.67,SSW,212,0.0,1.0,77,0.00,,,0.00,meteohub,2013-04-22 03:00:00,
2013-04-21 23:05:00,30.9,24.8,30.67,SSW,212,0.0,1.0,78,0.00,,,0.00,meteohub,2013-04-22 03:05:00,
2013-04-21 23:11:00,30.6,24.4,30.67,SSW,212,0.0,1.0,78,0.00,,,0.00,meteohub,2013-04-22 03:11:00,
2013-04-21 23:16:00,30.4,24.3,30.68,SSW,212,0.0,1.0,78,0.00,,,0.00,meteohub,2013-04-22 03:16:00,
2013-04-21 23:21:00,30.0,24.3,30.67,SSW,212,0.0,0.0,79,0.00,,,0.00,meteohub,2013-04-22 03:21:00,
2013-04-21 23:26:00,30.0,24.3,30.67,SSW,212,0.0,0.0,79,0.00,,,0.00,meteohub,2013-04-22 03:26:00,
2013-04-21 23:31:00,29.7,24.6,30.67,SSW,212,0.0,1.0,81,0.00,,,0.00,meteohub,2013-04-22 03:31:00,
2013-04-21 23:36:00,29.7,24.6,30.67,SSW,212,0.0,1.0,81,0.00,,,0.00,meteohub,2013-04-22 03:36:00,
2013-04-21 23:41:00,29.7,24.8,30.67,SSW,212,0.0,1.0,82,0.00,,,0.00,meteohub,2013-04-22 03:41:00,
2013-04-21 23:46:00,29.5,24.6,30.67,SSW,212,0.0,1.0,82,0.00,,,0.00,meteohub,2013-04-22 03:46:00,
2013-04-21 23:51:00,29.5,24.6,30.67,SSW,212,0.0,0.0,82,0.00,,,0.00,meteohub,2013-04-22 03:51:00,
2013-04-21 23:56:00,29.3,24.4,30.67,SSW,212,0.0,0.0,82,0.00,,,0.00,meteohub,2013-04-22 03:56:00,